Regional Weather Roundup
Issued by NWS

Home | Current Version | Previous Version | Text Only | Print | Product List | Glossary On
Versions: 1 2 3 4 5 6 7 8 9 10 11 12 13 14 15 16 17 18 19 20 21 22 23 24 25 26 27 28 29 30 31 32 33 34 35 36 37 38 39 40 41 42 43 44 45 46 47 48 49 50
492
ASUS43 KMKX 210110
RWRWI

WISCONSIN REGIONAL WEATHER ROUNDUP
NATIONAL WEATHER SERVICE MILWAUKEE/SULLIVAN WI
700 PM CST MON NOV 20 2017

NOTE: "FAIR" INDICATES FEW OR NO CLOUDS BELOW 12,000 FEET WITH NO
SIGNIFICANT WEATHER AND/OR OBSTRUCTIONS TO VISIBILITY.

WIZ001-002-006>008-014>016-023>028-210200-
NORTHWEST WISCONSIN

CITY           SKY/WX    TMP DP  RH WIND       PRES   REMARKS
SUPERIOR ARPT  CLEAR     36  29  76 SW9       29.31F WCI  29
ASHLAND        CLEAR     41  29  62 SW16G26   29.32F
HAYWARD        CLEAR     40  29  64 SW9       29.37F WCI  34
SIREN          CLEAR     40  29  64 SW12      29.38F WCI  34
CUMBERLAND     CLEAR     36  30  80 SW10      29.41F WCI  28
RICE LAKE      CLEAR     40  31  68 SW9       29.43F WCI  35
CHETEK         CLEAR     41  31  68 SW7       29.43S
LADYSMITH      CLOUDY    39  30  72 SW5       29.43S
EAU CLAIRE     CLOUDY    45  30  55 SW10      29.44R
MENOMONIE      PTCLDY    46  30  53 SW13      29.46R
NEW RICHMOND   CLOUDY    40  29  65 SW10      29.45S WCI  34
OSCEOLA        CLOUDY    38  30  71 SW8       29.46F WCI  32
$$

WIZ003>005-009-010-017-018-210200-
NORTH CENTRAL WISCONSIN

CITY           SKY/WX    TMP DP  RH WIND       PRES   REMARKS
MANITOWISH WTR CLOUDY    36  31  82 S8        29.36S WCI  29
ARBOR VITAE    CLEAR     39  31  72 S9G17     29.37F WCI  33
WOODRUFF       CLEAR     39  31  72 S9G17     29.37F WCI  33
RHINELANDER    CLOUDY    41  30  65 SW14      29.39F
EAGLE RIVER    CLOUDY    36  27  72 S5        29.36F WCI  32
LAND O LAKES   CLOUDY    37  29  75 S6        29.37F WCI  32
PHILLIPS       CLEAR     40  30  69 SW9G16    29.38F WCI  33
TOMAHAWK       CLOUDY    38  29  70 CALM      29.41F
MEDFORD        PTCLDY    39  30  69 S12       29.42F WCI  32
MERRILL        CLOUDY    41  30  64 SW8       29.43F
$$

WIZ029-030-035-036-043>047-210200-
CENTRAL WISCONSIN

CITY           SKY/WX    TMP DP  RH WIND       PRES   REMARKS
WAUSAU         CLOUDY    44  30  57 SW13      29.43F
MOSINEE        CLOUDY    43  30  61 SW13      29.47F
MARSHFIELD     CLOUDY    43  30  60 SW12      29.44F
STEVENS POINT  CLOUDY    44  30  57 SW14      29.46F
WAUPACA        MOCLDY    46  32  59 S9        29.49F
WAUTOMA        PTCLDY    45  31  58 S8        29.51F
WISC RAPIDS    CLOUDY    47  32  56 SW15G22   29.48F
CAMP DOUGLAS   CLOUDY    48  30  49 SW14G21   29.51F
$$

WIZ011>013-019>022-031-037>040-048>050-210200-
NORTHEAST WISCONSIN

CITY           SKY/WX    TMP DP  RH WIND       PRES   REMARKS
ANTIGO         CLOUDY    37  30  76 SW8       29.44S WCI  30
SHAWANO        PTCLDY    45  32  61 S5        29.46F
OCONTO         PTCLDY    44  32  62 S8        29.47F
STURGEON BAY   PTCLDY    43  33  68 S13       29.50F
GREEN BAY      PTCLDY    45  35  68 S13       29.50F
MANITOWOC      NOT AVBL
APPLETON       MOCLDY    45  30  57 SW16      29.50F
CLINTONVILLE   CLOUDY    43  30  61 S10       29.46F
OSHKOSH        CLOUDY    46  33  60 S16G23    29.53F
$$

WIZ032>034-041-042-053>061-210200-
SOUTHWEST WISCONSIN

CITY           SKY/WX    TMP DP  RH WIND       PRES   REMARKS
LA CROSSE      CLOUDY    51  32  48 S15       29.50F
SPARTA         CLOUDY    50  32  50 S6        29.50F
VIROQUA        CLOUDY    49  33  54 SW16      29.54F
BOSCOBEL       CLOUDY    54  29  38 SW10G18   29.58F
PRAIRIE DU CHI CLOUDY    53  27  36 S9G16     29.59S
PLATTEVILLE    CLOUDY    50  33  53 SW17G24   29.63S
$$

WIZ056-057-062-063-064-067-068-210200-
SOUTH CENTRAL WISCONSIN

CITY           SKY/WX    TMP DP  RH WIND       PRES   REMARKS
REEDSBURG      PTCLDY    50  31  49 S17G24    29.54F
BARABOO/DELLS  PTCLDY    50  29  45 SW15G21   29.55S
LONE ROCK      PTCLDY    52  31  44 SW9G18    29.59F
MINERAL POINT  CLOUDY    50  32  50 SW13      29.61F
MADISON        CLOUDY    50  32  50 S15G28    29.60S
MIDDLETON      CLOUDY    51  32  48 SW14G23   29.60F
WATERTOWN      CLOUDY    49  33  52 SW20G25   29.61S
MONROE         CLOUDY    46  32  57 S21       29.63S
JANESVILLE     MOCLDY    50  34  53 S15G21    29.66R
$$

WIZ051-052-058>065-066-070>072-210200-
SOUTHEAST WISCONSIN

CITY           SKY/WX    TMP DP  RH WIND       PRES   REMARKS
MILWAUKEE      CLOUDY    50  33  52 SW20G32   29.65S
WAUKESHA       CLEAR     48  30  49 SW16G26   29.64F
MILWAUKEE/TIMM CLEAR     48  30  49 SW14G26   29.64S
RACINE         CLOUDY    49  34  56 SW20G31   29.67S
BURLINGTON     CLOUDY    48  39  69 SW20G30   29.66S
KENOSHA        CLOUDY    49  33  54 SW18G32   29.67S
FOND DU LAC    CLOUDY    48  32  53 S18G33    29.55F
SHEBOYGAN      CLOUDY    48  34  58 SW18G30   29.56F
WEST BEND      PTCLDY    46  32  57 SW18G25   29.59F
JUNEAU         CLOUDY    47  33  58 S21G29    29.60F
$$

LSZ147-162-210200-
LAKE SUPERIOR

STATION/POSITION TIME  TEMP    WIND        PRES    WAVE
                       AIR SEA DIR/SP/G            HT/PER
                 (UTC) (F)     (DEG/KT/KT) (MB)    (FT/S)
DEVILS ISLAND    0000   39     210/ 10/ 12  992.9F
SAXON HARBOR     0030   45     200/ 13/ 20  992.2F
$$

LMZ867-665-643>646-210200-
LAKE MICHIGAN

STATION/POSITION TIME  TEMP    WIND        PRES    WAVE
                       AIR SEA DIR/SP/G            HT/PER
                 (UTC) (F)     (DEG/KT/KT) (MB)    (FT/S)
N MID LAKE BUOY  2350   47 48  190/ 29/ 35 1000.0F  10/ 7
NORTHPORT PIER   0040   45     170/  8/ 19  998.6F
KEWAUNEE LAKESHO 0042   42     190/  8/ 11  999.4F
SHEBOYGAN LAKESH 0100   50     210/ 23/ 27 1001.0F
PORT WASHINGTON  0040   50     220/ 10/ 22 1003.7S
MILWAUKEE LAKESH 0050   50     220/ 18/ 20   N/A
S MID LAKE BUOY  2350   50 49  210/ 29/ 35 1005.1F   7/ 6
KENOSHA   LAKESH 0000   51     210/ 16/ 31 1004.7
$$

TC  - TEMPERATURE IN CELSIUS
VSB - VISIBILITY IN STATUTE MILES
WCI - WIND CHILL INDEX
HX  - HEAT INDEX





USA.gov is the U.S. government's official web portal to all federal, state and local government web resources and services.